| time (UTC) | temp F | wind direction | speed MPH | gust MPH | rain 1hr in | rain 24hr in | rain mn in | humidity % | barometer mb |
| 20260831192205 | 60 | 155 | 6.0 | 7.0 | 0.00 | 0.17 | 0.17 | 88 | 1005.2 |
| 20260831191206 | 60 | 170 | 6.0 | 8.0 | 0.00 | 0.17 | 0.17 | 87 | 1005.2 |
| 20260831190705 | 60 | 157 | 5.0 | 7.0 | 0.00 | 0.17 | 0.17 | 87 | 1005.2 |
| 20260831185705 | 60 | 171 | 3.0 | 8.0 | 0.00 | 0.17 | 0.17 | 87 | 1005.2 |
| 20260831185206 | 61 | 165 | 6.0 | 7.0 | 0.00 | 0.17 | 0.17 | 86 | 1005.0 |
| 20260831184705 | 61 | 172 | 2.0 | 5.0 | 0.00 | 0.17 | 0.17 | 86 | 1005.0 |
| 20260831183706 | 61 | 177 | 4.0 | 5.0 | 0.00 | 0.17 | 0.17 | 86 | 1004.9 |
| 20260831183206 | 61 | 191 | 2.0 | 3.0 | 0.00 | 0.17 | 0.17 | 85 | 1004.9 |
| 20260831182707 | 62 | 195 | 2.0 | 5.0 | 0.00 | 0.17 | 0.17 | 85 | 1004.9 |
| 20260831181705 | 62 | 209 | 1.0 | 3.0 | 0.00 | 0.17 | 0.17 | 84 | 1004.6 |
| 20260831181205 | 62 | 192 | 1.0 | 5.0 | 0.00 | 0.17 | 0.17 | 84 | 1004.6 |
| 20260831175204 | 63 | 207 | 1.0 | 3.0 | 0.00 | 0.17 | 0.17 | 84 | 1004.5 |
| 20260831173204 | 64 | 186 | 4.0 | 7.0 | 0.00 | 0.17 | 0.17 | 82 | 1004.5 |
| 20260831170706 | 66 | 237 | 6.0 | 10.0 | 0.00 | 0.17 | 0.17 | 84 | 1004.4 |
| 20260831170205 | 66 | 232 | 6.0 | 17.0 | 0.00 | 0.17 | 0.17 | 85 | 1004.4 |
| 20260831165205 | 66 | 215 | 5.0 | 7.0 | 0.00 | 0.17 | 0.17 | 88 | 1004.5 |
| 20260831164205 | 65 | 195 | 4.0 | 7.0 | 0.01 | 0.17 | 0.17 | 89 | 1004.6 |
| 20260831161705 | 63 | 147 | 5.0 | 7.0 | 0.01 | 0.17 | 0.17 | 88 | 1004.6 |
| 20260831155708 | 63 | 166 | 1.0 | 2.0 | 0.05 | 0.17 | 0.17 | 87 | 1004.2 |
| 20260831155207 | 63 | 165 | 3.0 | 5.0 | 0.05 | 0.17 | 0.17 | 86 | 1004.2 |
| 20260831154705 | 63 | 178 | 3.0 | 6.0 | 0.05 | 0.17 | 0.17 | 86 | 1004.3 |
| 20260831154206 | 63 | 170 | 3.0 | 5.0 | 0.04 | 0.16 | 0.16 | 85 | 1004.3 |
| 20260831153705 | 63 | 173 | 4.0 | 7.0 | 0.04 | 0.16 | 0.16 | 85 | 1004.4 |
| 20260831152707 | 65 | 188 | 6.0 | 7.0 | 0.04 | 0.16 | 0.16 | 83 | 1004.4 |
| 20260831151206 | 67 | 268 | 5.0 | 13.0 | 0.01 | 0.13 | 0.13 | 80 | 1004.5 |
| 20260831150707 | 67 | 296 | 5.0 | 7.0 | 0.00 | 0.12 | 0.12 | 78 | 1004.5 |
| 20260831145205 | 68 | 289 | 3.0 | 7.0 | 0.00 | 0.12 | 0.12 | 76 | 1004.4 |
| 20260831144707 | 68 | 206 | 5.0 | 8.0 | 0.00 | 0.12 | 0.12 | 76 | 1004.3 |
| 20260831144206 | 68 | 232 | 7.0 | 13.0 | 0.00 | 0.12 | 0.12 | 76 | 1004.4 |
| 20260831143204 | 68 | 198 | 6.0 | 10.0 | 0.00 | 0.12 | 0.12 | 75 | 1004.4 |
| 20260831142704 | 69 | 220 | 5.0 | 8.0 | 0.00 | 0.12 | 0.12 | 75 | 1004.5 |
| 20260831142205 | 69 | 230 | 3.0 | 7.0 | 0.00 | 0.12 | 0.12 | 75 | 1004.5 |
| 20260831141705 | 69 | 220 | 7.0 | 8.0 | 0.00 | 0.12 | 0.12 | 73 | 1004.4 |
| 20260831140706 | 70 | 211 | 6.0 | 15.0 | 0.00 | 0.12 | 0.12 | 73 | 1004.3 |
| 20260831133205 | 70 | 221 | 8.0 | 15.0 | 0.00 | 0.17 | 0.12 | 73 | 1004.4 |
| 20260831132206 | 70 | 213 | 9.0 | 16.0 | 0.00 | 0.19 | 0.12 | 72 | 1004.3 |
| 20260831131206 | 70 | 203 | 10.0 | 15.0 | 0.00 | 0.19 | 0.12 | 73 | 1004.4 |
| 20260831130705 | 70 | 274 | 10.0 | 16.0 | 0.00 | 0.19 | 0.12 | 75 | 1004.4 |
| 20260831125706 | 69 | 183 | 10.0 | 18.0 | 0.00 | 0.19 | 0.12 | 76 | 1004.3 |
| 20260831123205 | 69 | 195 | 8.0 | 20.0 | 0.00 | 0.19 | 0.12 | 76 | 1004.3 |
| 20260831122705 | 69 | 192 | 13.0 | 20.0 | 0.00 | 0.19 | 0.12 | 76 | 1004.3 |
| 20260831115207 | 68 | 180 | 9.0 | 16.0 | 0.00 | 0.19 | 0.12 | 82 | 1004.3 |
| 20260831114206 | 67 | 190 | 11.0 | 18.0 | 0.00 | 0.19 | 0.12 | 85 | 1004.3 |
| 20260831111707 | 67 | 155 | 12.0 | 18.0 | 0.01 | 0.21 | 0.12 | 87 | 1004.2 |
| 20260831111208 | 67 | 161 | 7.0 | 14.0 | 0.01 | 0.21 | 0.12 | 87 | 1004.3 |
| 20260831110708 | 66 | 165 | 10.0 | 18.0 | 0.01 | 0.21 | 0.12 | 87 | 1004.2 |
| 20260831105208 | 66 | 160 | 10.0 | 16.0 | 0.01 | 0.21 | 0.12 | 89 | 1004.2 |
| 20260831103706 | 66 | 165 | 12.0 | 18.0 | 0.02 | 0.20 | 0.11 | 91 | 1004.2 |
| 20260831101707 | 63 | 206 | 5.0 | 7.0 | 0.07 | 0.20 | 0.11 | 90 | 1004.6 |
| 20260831101206 | 63 | 169 | 7.0 | 15.0 | 0.07 | 0.20 | 0.11 | 89 | 1004.6 |
| 20260831095705 | 63 | 165 | 10.0 | 16.0 | 0.07 | 0.20 | 0.11 | 88 | 1004.8 |
| 20260831095206 | 64 | 173 | 6.0 | 13.0 | 0.07 | 0.21 | 0.11 | 88 | 1004.8 |
| 20260831094707 | 64 | 170 | 7.0 | 16.0 | 0.07 | 0.22 | 0.11 | 86 | 1004.8 |
| 20260831094206 | 65 | 174 | 8.0 | 18.0 | 0.07 | 0.22 | 0.11 | 86 | 1004.8 |
| 20260831091706 | 65 | 152 | 14.0 | 23.0 | 0.00 | 0.15 | 0.03 | 90 | 1004.9 |
| 20260831091207 | 65 | 150 | 16.0 | 22.0 | 0.00 | 0.15 | 0.03 | 91 | 1004.9 |
| 20260831090706 | 65 | 162 | 13.0 | 20.0 | 0.00 | 0.15 | 0.03 | 91 | 1004.9 |
| 20260831085706 | 65 | 150 | 8.0 | 13.0 | 0.00 | 0.15 | 0.03 | 92 | 1005.0 |
| 20260831084706 | 64 | 146 | 7.0 | 8.0 | 0.00 | 0.15 | 0.03 | 92 | 1005.1 |
| 20260831083706 | 64 | 163 | 7.0 | 10.0 | 0.00 | 0.15 | 0.03 | 92 | 1005.3 |
| 20260831083206 | 64 | 168 | 6.0 | 7.0 | 0.00 | 0.15 | 0.03 | 92 | 1005.3 |
| 20260831082706 | 63 | 178 | 7.0 | 10.0 | 0.00 | 0.15 | 0.03 | 92 | 1005.4 |
| 20260831082206 | 63 | 170 | 8.0 | 13.0 | 0.00 | 0.15 | 0.03 | 92 | 1005.4 |
| 20260831081706 | 63 | 153 | 9.0 | 13.0 | 0.00 | 0.15 | 0.03 | 93 | 1005.2 |
| 20260831080205 | 63 | 182 | 6.0 | 14.0 | 0.00 | 0.15 | 0.03 | 92 | 1005.3 |
| 20260831075705 | 63 | 149 | 9.0 | 14.0 | 0.01 | 0.15 | 0.03 | 93 | 1005.3 |
| 20260831074706 | 62 | 149 | 10.0 | 15.0 | 0.02 | 0.16 | 0.03 | 92 | 1005.3 |
| 20260831074206 | 62 | 132 | 6.0 | 9.0 | 0.02 | 0.18 | 0.03 | 93 | 1005.3 |
| 20260831073209 | 62 | 131 | 6.0 | 9.0 | 0.02 | 0.18 | 0.03 | 92 | 1005.3 |
| 20260831072706 | 61 | 126 | 8.0 | 13.0 | 0.02 | 0.18 | 0.03 | 92 | 1005.2 |
| 20260831070206 | 61 | 154 | 2.0 | 6.0 | 0.02 | 0.18 | 0.03 | 92 | 1005.8 |
| 20260831065706 | 61 | 162 | 3.0 | 7.0 | 0.01 | 0.17 | 0.02 | 93 | 1005.7 |
| 20260831062706 | 60 | 153 | 10.0 | 13.0 | 0.00 | 0.16 | 0.01 | 92 | 1005.7 |
| 20260831062207 | 60 | 152 | 7.0 | 10.0 | 0.00 | 0.16 | 0.01 | 93 | 1005.6 |
| 20260831061206 | 60 | 137 | 3.0 | 5.0 | 0.00 | 0.16 | 0.01 | 92 | 1005.5 |
| 20260831060706 | 59 | 138 | 6.0 | 8.0 | 0.00 | 0.16 | 0.01 | 92 | 1005.6 |
| 20260831060206 | 59 | 129 | 6.0 | 6.0 | 0.01 | 0.16 | 0.01 | 92 | 1005.6 |
| 20260831054206 | 59 | 133 | 6.0 | 7.0 | 0.01 | 0.16 | 0.01 | 92 | 1005.8 |
| 20260831053707 | 59 | 133 | 6.0 | 7.0 | 0.01 | 0.16 | 0.01 | 92 | 1005.8 |
| 20260831053206 | 58 | 131 | 5.0 | 7.0 | 0.01 | 0.16 | 0.01 | 92 | 1005.8 |
| 20260831052206 | 58 | 121 | 6.0 | 6.0 | 0.01 | 0.16 | 0.01 | 92 | 1005.8 |
| 20260831050705 | 58 | 123 | 5.0 | 7.0 | 0.01 | 0.16 | 0.01 | 92 | 1006.0 |
| 20260831045706 | 58 | 122 | 7.0 | 8.0 | 0.00 | 0.16 | 0.00 | 92 | 1006.0 |
| 20260831044705 | 57 | 133 | 5.0 | 6.0 | 0.00 | 0.17 | 0.00 | 92 | 1006.1 |
| 20260831043205 | 57 | 146 | 5.0 | 8.0 | 0.00 | 0.17 | 0.00 | 92 | 1006.3 |
| 20260831040705 | 57 | 159 | 6.0 | 7.0 | 0.00 | 0.17 | 0.00 | 92 | 1006.4 |
| 20260831035705 | 57 | 157 | 5.0 | 6.0 | 0.00 | 0.17 | 0.00 | 91 | 1006.3 |
| 20260831034706 | 57 | 165 | 5.0 | 6.0 | 0.00 | 0.17 | 0.00 | 91 | 1006.4 |
| 20260831034206 | 57 | 161 | 5.0 | 7.0 | 0.00 | 0.17 | 0.00 | 92 | 1006.4 |
| 20260831032706 | 57 | 154 | 5.0 | 6.0 | 0.00 | 0.17 | 0.00 | 91 | 1006.2 |
| 20260831032205 | 57 | 157 | 5.0 | 6.0 | 0.00 | 0.17 | 0.00 | 91 | 1006.2 |
| 20260831031206 | 57 | 163 | 5.0 | 7.0 | 0.00 | 0.17 | 0.00 | 91 | 1006.5 |
| 20260831030705 | 57 | 162 | 5.0 | 7.0 | 0.00 | 0.17 | 0.00 | 91 | 1006.5 |
| 20260831030205 | 57 | 153 | 5.0 | 7.0 | 0.00 | 0.17 | 0.00 | 91 | 1006.6 |
| 20260831025705 | 57 | 156 | 5.0 | 7.0 | 0.00 | 0.17 | 0.00 | 91 | 1006.6 |
| 20260831024706 | 57 | 154 | 5.0 | 6.0 | 0.00 | 0.17 | 0.00 | 91 | 1006.6 |
| 20260831023207 | 57 | 169 | 5.0 | 7.0 | 0.00 | 0.17 | 0.00 | 91 | 1006.8 |
| 20260831022707 | 57 | 162 | 5.0 | 8.0 | 0.00 | 0.17 | 0.00 | 91 | 1006.7 |
| 20260831021705 | 57 | 156 | 5.0 | 7.0 | 0.00 | 0.17 | 0.00 | 91 | 1006.9 |
| 20260831021206 | 57 | 172 | 5.0 | 8.0 | 0.00 | 0.17 | 0.00 | 91 | 1006.9 |
| 20260831020705 | 57 | 174 | 5.0 | 7.0 | 0.00 | 0.17 | 0.00 | 91 | 1006.9 |
| 20260831020206 | 57 | 174 | 5.0 | 8.0 | 0.00 | 0.17 | 0.00 | 91 | 1006.9 |
| 20260831015206 | 56 | 167 | 6.0 | 7.0 | 0.00 | 0.17 | 0.00 | 91 | 1007.0 |
| 20260831014707 | 56 | 172 | 6.0 | 7.0 | 0.00 | 0.17 | 0.00 | 91 | 1007.0 |
| 20260831013207 | 56 | 162 | 6.0 | 7.0 | 0.00 | 0.17 | 0.00 | 90 | 1006.9 |
| 20260831011205 | 57 | 175 | 5.0 | 7.0 | 0.00 | 0.17 | 0.00 | 90 | 1006.9 |
| 20260831010205 | 57 | 165 | 5.0 | 8.0 | 0.00 | 0.17 | 0.00 | 90 | 1006.9 |
| 20260831005707 | 57 | 169 | 5.0 | 7.0 | 0.00 | 0.17 | 0.00 | 90 | 1007.0 |
| 20260831004207 | 57 | 183 | 6.0 | 10.0 | 0.00 | 0.19 | 0.00 | 90 | 1007.1 |
| 20260831003705 | 57 | 169 | 6.0 | 8.0 | 0.00 | 0.19 | 0.00 | 90 | 1007.1 |
| 20260831003206 | 57 | 174 | 6.0 | 10.0 | 0.00 | 0.19 | 0.00 | 90 | 1007.1 |
| 20260831002705 | 57 | 172 | 6.0 | 6.0 | 0.00 | 0.19 | 0.00 | 90 | 1007.1 |
| 20260831002205 | 57 | 166 | 6.0 | 7.0 | 0.00 | 0.19 | 0.00 | 90 | 1007.0 |
| 20260831001205 | 57 | 159 | 6.0 | 13.0 | 0.00 | 0.19 | 0.00 | 90 | 1007.0 |
| 20260831000206 | 57 | 167 | 7.0 | 7.0 | 0.00 | 0.19 | 0.00 | 90 | 1007.0 |
| 20260830235206 | 57 | 172 | 5.0 | 8.0 | 0.00 | 0.19 | 0.00 | 89 | 1007.0 |
| 20260830233205 | 58 | 177 | 3.0 | 6.0 | 0.00 | 0.19 | 0.00 | 89 | 1006.9 |
| 20260830231205 | 58 | 167 | 5.0 | 7.0 | 0.00 | 0.19 | 0.00 | 89 | 1006.8 |
| 20260830230206 | 58 | 160 | 5.0 | 5.0 | 0.00 | 0.19 | 0.00 | 89 | 1006.8 |
| 20260830224705 | 59 | 160 | 4.0 | 6.0 | 0.00 | 0.19 | 0.00 | 89 | 1006.8 |
| 20260830224205 | 59 | 159 | 3.0 | 6.0 | 0.00 | 0.19 | 0.00 | 88 | 1006.8 |
| 20260830223205 | 59 | 162 | 3.0 | 5.0 | 0.00 | 0.19 | 0.00 | 89 | 1006.8 |
| 20260830222205 | 59 | 186 | 3.0 | 6.0 | 0.00 | 0.19 | 0.00 | 89 | 1006.9 |
| 20260830221206 | 59 | 193 | 2.0 | 5.0 | 0.00 | 0.19 | 0.00 | 88 | 1006.8 |
| 20260830220705 | 59 | 197 | 3.0 | 5.0 | 0.00 | 0.19 | 0.00 | 88 | 1006.9 |
| 20260830215708 | 59 | 210 | 3.0 | 6.0 | 0.00 | 0.19 | 0.19 | 87 | 1006.8 |
| 20260830215205 | 59 | 224 | 3.0 | 3.0 | 0.00 | 0.19 | 0.19 | 87 | 1006.8 |
| 20260830213206 | 60 | 219 | 5.0 | 6.0 | 0.00 | 0.19 | 0.19 | 87 | 1006.8 |
| 20260830212707 | 60 | 228 | 3.0 | 5.0 | 0.00 | 0.19 | 0.19 | 86 | 1006.8 |
| 20260830212205 | 60 | 208 | 3.0 | 5.0 | 0.00 | 0.19 | 0.19 | 86 | 1006.8 |
| 20260830211707 | 60 | 230 | 4.0 | 6.0 | 0.00 | 0.19 | 0.19 | 86 | 1006.7 |
| 20260830205707 | 61 | 232 | 3.0 | 6.0 | 0.00 | 0.19 | 0.19 | 86 | 1006.6 |
| 20260830205206 | 61 | 268 | 1.0 | 7.0 | 0.00 | 0.19 | 0.19 | 85 | 1006.6 |
| 20260830202206 | 61 | 224 | 4.0 | 7.0 | 0.00 | 0.19 | 0.19 | 85 | 1006.7 |
| 20260830201207 | 61 | 265 | 4.0 | 7.0 | 0.00 | 0.19 | 0.19 | 85 | 1006.5 |
| 20260830200705 | 61 | 268 | 5.0 | 10.0 | 0.00 | 0.19 | 0.19 | 85 | 1006.4 |
| 20260830200205 | 61 | 240 | 3.0 | 8.0 | 0.00 | 0.19 | 0.19 | 85 | 1006.4 |
| 20260830195206 | 62 | 236 | 5.0 | 10.0 | 0.00 | 0.19 | 0.19 | 85 | 1006.3 |
| 20260830194708 | 62 | 232 | 6.0 | 13.0 | 0.00 | 0.19 | 0.19 | 86 | 1006.3 |
| 20260830194205 | 61 | 254 | 9.0 | 14.0 | 0.00 | 0.19 | 0.19 | 86 | 1006.1 |